owner,sensor,date,latitude,longitude,vertical_datum,wind_speed,wind_to_direction,wind_speed_of_gust,qcFlag 
DISL,ioos:station:DISL:MBLA:1,2010-04-01T00:00:00Z,30.4367,-88.0117,14.2,6.54,217.9,-9999.0,'1111122,1111122,1111122' 
DISL,ioos:station:DISL:MBLA:1,2010-04-01T00:30:00Z,30.4367,-88.0117,14.2,5.72,226.7,-9999.0,'1111122,1111122,1111122' 
DISL,ioos:station:DISL:MBLA:1,2010-04-01T01:00:00Z,30.4367,-88.0117,14.2,5.04,230.7,-9999.0,'1111122,1111122,1111122' 
DISL,ioos:station:DISL:MBLA:1,2010-04-01T01:30:00Z,30.4367,-88.0117,14.2,4.3,228.1,-9999.0,'1111122,1111122,1111122' 
DISL,ioos:station:DISL:MBLA:1,2010-04-01T02:00:00Z,30.4367,-88.0117,14.2,4.89,207.4,-9999.0,'1111122,1111122,1111122' 
DISL,ioos:station:DISL:MBLA:1,2010-04-01T02:30:00Z,30.4367,-88.0117,14.2,4.8,214.5,-9999.0,'1111122,1111122,1111122' 
DISL,ioos:station:DISL:MBLA:1,2010-04-01T03:00:00Z,30.4367,-88.0117,14.2,4.62,211.9,-9999.0,'1111122,1111122,1111122' 
DISL,ioos:station:DISL:MBLA:1,2010-04-01T03:30:00Z,30.4367,-88.0117,14.2,4.86,196.0,-9999.0,'1111122,1111122,1111122' 
DISL,ioos:station:DISL:MBLA:1,2010-04-01T04:00:00Z,30.4367,-88.0117,14.2,5.3,200.4,-9999.0,'1111122,1111122,1111122' 
DISL,ioos:station:DISL:MBLA:1,2010-04-01T04:30:00Z,30.4367,-88.0117,14.2,4.76,196.9,-9999.0,'1111122,1111122,1111122' 
DISL,ioos:station:DISL:MBLA:1,2010-04-01T05:00:00Z,30.4367,-88.0117,14.2,5.51,199.4,-9999.0,'1111122,1111122,1111122' 
DISL,ioos:station:DISL:MBLA:1,2010-04-01T05:30:00Z,30.4367,-88.0117,14.2,5.79,202.0,-9999.0,'1111122,1111122,1111122' 
DISL,ioos:station:DISL:MBLA:1,2010-04-01T06:00:00Z,30.4367,-88.0117,14.2,6.03,203.8,-9999.0,'1111122,1111122,1111122' 
DISL,ioos:station:DISL:MBLA:1,2010-04-01T06:30:00Z,30.4367,-88.0117,14.2,6.16,203.9,-9999.0,'1111122,1111122,1111122' 
DISL,ioos:station:DISL:MBLA:1,2010-04-01T07:00:00Z,30.4367,-88.0117,14.2,6.18,198.3,-9999.0,'1111122,1111122,1111122' 
DISL,ioos:station:DISL:MBLA:1,2010-04-01T07:30:00Z,30.4367,-88.0117,14.2,6.51,202.9,-9999.0,'1111122,1111122,1111122' 
DISL,ioos:station:DISL:MBLA:1,2010-04-01T08:00:00Z,30.4367,-88.0117,14.2,6.23,199.0,-9999.0,'1111122,1111122,1111122' 
DISL,ioos:station:DISL:MBLA:1,2010-04-01T08:30:00Z,30.4367,-88.0117,14.2,6.33,198.5,-9999.0,'1111122,1111122,1111122' 
DISL,ioos:station:DISL:MBLA:1,2010-04-01T09:00:00Z,30.4367,-88.0117,14.2,5.95,198.0,-9999.0,'1111122,1111122,1111122' 
DISL,ioos:station:DISL:MBLA:1,2010-04-01T09:30:00Z,30.4367,-88.0117,14.2,5.08,202.4,-9999.0,'1111122,1111122,1111122' 
DISL,ioos:station:DISL:MBLA:1,2010-04-01T10:00:00Z,30.4367,-88.0117,14.2,5.23,199.9,-9999.0,'1111122,1111122,1111122' 
DISL,ioos:station:DISL:MBLA:1,2010-04-01T10:30:00Z,30.4367,-88.0117,14.2,5.09,194.1,-9999.0,'1111122,1111122,1111122' 
DISL,ioos:station:DISL:MBLA:1,2010-04-01T11:00:00Z,30.4367,-88.0117,14.2,4.57,200.0,-9999.0,'1111122,1111122,1111122' 
DISL,ioos:station:DISL:MBLA:1,2010-04-01T11:30:00Z,30.4367,-88.0117,14.2,4.44,202.1,-9999.0,'1111122,1111122,1111122' 
DISL,ioos:station:DISL:MBLA:1,2010-04-01T12:00:00Z,30.4367,-88.0117,14.2,3.95,212.6,-9999.0,'1111122,1111122,1111122' 
DISL,ioos:station:DISL:MBLA:1,2010-04-01T12:30:00Z,30.4367,-88.0117,14.2,3.79,196.2,-9999.0,'1111122,1111122,1111122' 
DISL,ioos:station:DISL:MBLA:1,2010-04-01T13:00:00Z,30.4367,-88.0117,14.2,4.47,201.9,-9999.0,'1111122,1111122,1111122' 
DISL,ioos:station:DISL:MBLA:1,2010-04-01T13:30:00Z,30.4367,-88.0117,14.2,4.51,211.7,-9999.0,'1111122,1111122,1111122' 
DISL,ioos:station:DISL:MBLA:1,2010-04-01T14:00:00Z,30.4367,-88.0117,14.2,4.37,204.4,-9999.0,'1111122,1111122,1111122' 
DISL,ioos:station:DISL:MBLA:1,2010-04-01T14:30:00Z,30.4367,-88.0117,14.2,3.75,193.2,-9999.0,'1111122,1111122,1111122' 
DISL,ioos:station:DISL:MBLA:1,2010-04-01T15:00:00Z,30.4367,-88.0117,14.2,3.53,190.5,-9999.0,'1111122,1111122,1111122' 
DISL,ioos:station:DISL:MBLA:1,2010-04-01T15:30:00Z,30.4367,-88.0117,14.2,3.83,181.4,-9999.0,'1111122,1111122,1111122' 
DISL,ioos:station:DISL:MBLA:1,2010-04-01T16:00:00Z,30.4367,-88.0117,14.2,4.39,181.0,-9999.0,'1111122,1111122,1111122' 
DISL,ioos:station:DISL:MBLA:1,2010-04-01T16:30:00Z,30.4367,-88.0117,14.2,5.32,179.8,-9999.0,'1111122,1111122,1111122' 
DISL,ioos:station:DISL:MBLA:1,2010-04-01T17:00:00Z,30.4367,-88.0117,14.2,5.86,178.4,-9999.0,'1111122,1111122,1111122' 
DISL,ioos:station:DISL:MBLA:1,2010-04-01T17:30:00Z,30.4367,-88.0117,14.2,5.85,181.6,-9999.0,'1111122,1111122,1111122' 
DISL,ioos:station:DISL:MBLA:1,2010-04-01T18:00:00Z,30.4367,-88.0117,14.2,5.64,182.0,-9999.0,'1111122,1111122,1111122' 
DISL,ioos:station:DISL:MBLA:1,2010-04-01T18:30:00Z,30.4367,-88.0117,14.2,5.71,176.1,-9999.0,'1111122,1111122,1111122' 
DISL,ioos:station:DISL:MBLA:1,2010-04-01T19:00:00Z,30.4367,-88.0117,14.2,5.68,174.1,-9999.0,'1111122,1111122,1111122' 
DISL,ioos:station:DISL:MBLA:1,2010-04-01T19:30:00Z,30.4367,-88.0117,14.2,5.84,169.3,-9999.0,'1111122,1111122,1111122' 
DISL,ioos:station:DISL:MBLA:1,2010-04-01T20:00:00Z,30.4367,-88.0117,14.2,6.22,180.1,-9999.0,'1111122,1111122,1111122' 
DISL,ioos:station:DISL:MBLA:1,2010-04-01T20:30:00Z,30.4367,-88.0117,14.2,5.88,173.8,-9999.0,'1111122,1111122,1111122' 
DISL,ioos:station:DISL:MBLA:1,2010-04-01T21:00:00Z,30.4367,-88.0117,14.2,5.81,174.4,-9999.0,'1111122,1111122,1111122' 
DISL,ioos:station:DISL:MBLA:1,2010-04-01T21:30:00Z,30.4367,-88.0117,14.2,5.84,177.7,-9999.0,'1111122,1111122,1111122' 
DISL,ioos:station:DISL:MBLA:1,2010-04-01T22:00:00Z,30.4367,-88.0117,14.2,5.86,186.2,-9999.0,'1111122,1111122,1111122' 
DISL,ioos:station:DISL:MBLA:1,2010-04-01T22:30:00Z,30.4367,-88.0117,14.2,5.78,185.8,-9999.0,'1111122,1111122,1111122' 
DISL,ioos:station:DISL:MBLA:1,2010-04-01T23:00:00Z,30.4367,-88.0117,14.2,5.67,184.4,-9999.0,'1111122,1111122,1111122' 
DISL,ioos:station:DISL:MBLA:1,2010-04-01T23:30:00Z,30.4367,-88.0117,14.2,5.44,189.4,-9999.0,'1111122,1111122,1111122' 
DISL,ioos:station:DISL:MBLA:1,2010-04-02T00:00:00Z,30.4367,-88.0117,14.2,4.78,182.1,-9999.0,'1111122,1111122,1111122' 
DISL,ioos:station:DISL:MBLA:1,2010-04-02T00:30:00Z,30.4367,-88.0117,14.2,4.64,184.0,-9999.0,'1111122,1111122,1111122' 
DISL,ioos:station:DISL:MBLA:1,2010-04-02T01:00:00Z,30.4367,-88.0117,14.2,4.42,177.9,-9999.0,'1111122,1111122,1111122' 
DISL,ioos:station:DISL:MBLA:1,2010-04-02T01:30:00Z,30.4367,-88.0117,14.2,4.13,182.3,-9999.0,'1111122,1111122,1111122' 
DISL,ioos:station:DISL:MBLA:1,2010-04-02T02:00:00Z,30.4367,-88.0117,14.2,4.33,182.9,-9999.0,'1111122,1111122,1111122' 
DISL,ioos:station:DISL:MBLA:1,2010-04-02T02:30:00Z,30.4367,-88.0117,14.2,4.36,179.1,-9999.0,'1111122,1111122,1111122' 
DISL,ioos:station:DISL:MBLA:1,2010-04-02T03:00:00Z,30.4367,-88.0117,14.2,5.24,171.7,-9999.0,'1111122,1111122,1111122' 
DISL,ioos:station:DISL:MBLA:1,2010-04-02T03:30:00Z,30.4367,-88.0117,14.2,5.18,168.7,-9999.0,'1111122,1111122,1111122' 
DISL,ioos:station:DISL:MBLA:1,2010-04-02T04:00:00Z,30.4367,-88.0117,14.2,6.4,169.1,-9999.0,'1111122,1111122,1111122' 
DISL,ioos:station:DISL:MBLA:1,2010-04-02T04:30:00Z,30.4367,-88.0117,14.2,6.09,159.8,-9999.0,'1111122,1111122,1111122' 
DISL,ioos:station:DISL:MBLA:1,2010-04-02T05:00:00Z,30.4367,-88.0117,14.2,5.94,160.3,-9999.0,'1111122,1111122,1111122' 
DISL,ioos:station:DISL:MBLA:1,2010-04-02T05:30:00Z,30.4367,-88.0117,14.2,6.2,159.0,-9999.0,'1111122,1111122,1111122' 
DISL,ioos:station:DISL:MBLA:1,2010-04-02T06:00:00Z,30.4367,-88.0117,14.2,5.99,157.9,-9999.0,'1111122,1111122,1111122' 
DISL,ioos:station:DISL:MBLA:1,2010-04-02T06:30:00Z,30.4367,-88.0117,14.2,5.68,169.6,-9999.0,'1111122,1111122,1111122' 
DISL,ioos:station:DISL:MBLA:1,2010-04-02T07:00:00Z,30.4367,-88.0117,14.2,6.11,171.0,-9999.0,'1111122,1111122,1111122' 
DISL,ioos:station:DISL:MBLA:1,2010-04-02T07:30:00Z,30.4367,-88.0117,14.2,6.28,173.4,-9999.0,'1111122,1111122,1111122' 
DISL,ioos:station:DISL:MBLA:1,2010-04-02T08:00:00Z,30.4367,-88.0117,14.2,5.96,161.7,-9999.0,'1111122,1111122,1111122' 
DISL,ioos:station:DISL:MBLA:1,2010-04-02T08:30:00Z,30.4367,-88.0117,14.2,6.15,162.3,-9999.0,'1111122,1111122,1111122' 
DISL,ioos:station:DISL:MBLA:1,2010-04-02T09:00:00Z,30.4367,-88.0117,14.2,6.35,158.8,-9999.0,'1111122,1111122,1111122' 
DISL,ioos:station:DISL:MBLA:1,2010-04-02T09:30:00Z,30.4367,-88.0117,14.2,6.21,164.3,-9999.0,'1111122,1111122,1111122' 
DISL,ioos:station:DISL:MBLA:1,2010-04-02T10:00:00Z,30.4367,-88.0117,14.2,5.56,160.0,-9999.0,'1111122,1111122,1111122' 
DISL,ioos:station:DISL:MBLA:1,2010-04-02T10:30:00Z,30.4367,-88.0117,14.2,6.1,156.1,-9999.0,'1111122,1111122,1111122' 
DISL,ioos:station:DISL:MBLA:1,2010-04-02T11:00:00Z,30.4367,-88.0117,14.2,6.76,149.4,-9999.0,'1111122,1111122,1111122' 
DISL,ioos:station:DISL:MBLA:1,2010-04-02T11:30:00Z,30.4367,-88.0117,14.2,6.8,144.9,-9999.0,'1111122,1111122,1111122' 
DISL,ioos:station:DISL:MBLA:1,2010-04-02T12:00:00Z,30.4367,-88.0117,14.2,7.92,140.6,-9999.0,'1111122,1111122,1111122' 
DISL,ioos:station:DISL:MBLA:1,2010-04-02T12:30:00Z,30.4367,-88.0117,14.2,6.66,146.4,-9999.0,'1111122,1111122,1111122' 
DISL,ioos:station:DISL:MBLA:1,2010-04-02T13:00:00Z,30.4367,-88.0117,14.2,6.83,143.0,-9999.0,'1111122,1111122,1111122' 
DISL,ioos:station:DISL:MBLA:1,2010-04-02T13:30:00Z,30.4367,-88.0117,14.2,5.9,154.3,-9999.0,'1111122,1111122,1111122' 
DISL,ioos:station:DISL:MBLA:1,2010-04-02T14:00:00Z,30.4367,-88.0117,14.2,5.2,161.8,-9999.0,'1111122,1111122,1111122' 
DISL,ioos:station:DISL:MBLA:1,2010-04-02T14:30:00Z,30.4367,-88.0117,14.2,5.81,164.0,-9999.0,'1111122,1111122,1111122' 
DISL,ioos:station:DISL:MBLA:1,2010-04-02T15:00:00Z,30.4367,-88.0117,14.2,5.82,151.6,-9999.0,'1111122,1111122,1111122' 
DISL,ioos:station:DISL:MBLA:1,2010-04-02T15:30:00Z,30.4367,-88.0117,14.2,6.39,146.1,-9999.0,'1111122,1111122,1111122' 
DISL,ioos:station:DISL:MBLA:1,2010-04-02T16:00:00Z,30.4367,-88.0117,14.2,5.36,157.2,-9999.0,'1111122,1111122,1111122' 
DISL,ioos:station:DISL:MBLA:1,2010-04-02T16:30:00Z,30.4367,-88.0117,14.2,4.34,164.3,-9999.0,'1111122,1111122,1111122' 
DISL,ioos:station:DISL:MBLA:1,2010-04-02T17:00:00Z,30.4367,-88.0117,14.2,4.35,160.2,-9999.0,'1111122,1111122,1111122' 
DISL,ioos:station:DISL:MBLA:1,2010-04-02T17:30:00Z,30.4367,-88.0117,14.2,4.8,156.7,-9999.0,'1111122,1111122,1111122' 
DISL,ioos:station:DISL:MBLA:1,2010-04-02T18:00:00Z,30.4367,-88.0117,14.2,4.96,152.1,-9999.0,'1111122,1111122,1111122' 
DISL,ioos:station:DISL:MBLA:1,2010-04-02T18:30:00Z,30.4367,-88.0117,14.2,5.08,150.1,-9999.0,'1111122,1111122,1111122' 
DISL,ioos:station:DISL:MBLA:1,2010-04-02T19:00:00Z,30.4367,-88.0117,14.2,5.35,142.2,-9999.0,'1111122,1111122,1111122' 
DISL,ioos:station:DISL:MBLA:1,2010-04-02T19:30:00Z,30.4367,-88.0117,14.2,6.86,129.3,-9999.0,'1111122,1111122,1111122' 
DISL,ioos:station:DISL:MBLA:1,2010-04-02T20:00:00Z,30.4367,-88.0117,14.2,8.35,133.2,-9999.0,'1111122,1111122,1111122' 
DISL,ioos:station:DISL:MBLA:1,2010-04-02T20:30:00Z,30.4367,-88.0117,14.2,8.43,130.8,-9999.0,'1111122,1111122,1111122' 
DISL,ioos:station:DISL:MBLA:1,2010-04-02T21:00:00Z,30.4367,-88.0117,14.2,8.14,134.4,-9999.0,'1111122,1111122,1111122' 
DISL,ioos:station:DISL:MBLA:1,2010-04-02T21:30:00Z,30.4367,-88.0117,14.2,7.54,129.8,-9999.0,'1111122,1111122,1111122' 
DISL,ioos:station:DISL:MBLA:1,2010-04-02T22:00:00Z,30.4367,-88.0117,14.2,6.64,132.4,-9999.0,'1111122,1111122,1111122' 
DISL,ioos:station:DISL:MBLA:1,2010-04-02T22:30:00Z,30.4367,-88.0117,14.2,6.77,135.3,-9999.0,'1111122,1111122,1111122' 
DISL,ioos:station:DISL:MBLA:1,2010-04-02T23:00:00Z,30.4367,-88.0117,14.2,6.76,130.9,-9999.0,'1111122,1111122,1111122' 
DISL,ioos:station:DISL:MBLA:1,2010-04-02T23:30:00Z,30.4367,-88.0117,14.2,7.19,127.2,-9999.0,'1111122,1111122,1111122' 
DISL,ioos:station:DISL:MBLA:1,2010-04-03T00:00:00Z,30.4367,-88.0117,14.2,7.03,128.9,-9999.0,'1111122,1111122,1111122' 
DISL,ioos:station:DISL:MBLA:1,2010-04-03T00:30:00Z,30.4367,-88.0117,14.2,6.59,124.1,-9999.0,'1111122,1111122,1111122' 
DISL,ioos:station:DISL:MBLA:1,2010-04-03T01:00:00Z,30.4367,-88.0117,14.2,6.63,127.2,-9999.0,'1111122,1111122,1111122' 
DISL,ioos:station:DISL:MBLA:1,2010-04-03T01:30:00Z,30.4367,-88.0117,14.2,7.1,118.8,-9999.0,'1111122,1111122,1111122' 
DISL,ioos:station:DISL:MBLA:1,2010-04-03T02:00:00Z,30.4367,-88.0117,14.2,7.58,119.9,-9999.0,'1111122,1111122,1111122' 
DISL,ioos:station:DISL:MBLA:1,2010-04-03T02:30:00Z,30.4367,-88.0117,14.2,7.88,122.0,-9999.0,'1111122,1111122,1111122' 
DISL,ioos:station:DISL:MBLA:1,2010-04-03T03:00:00Z,30.4367,-88.0117,14.2,7.79,121.0,-9999.0,'1111122,1111122,1111122' 
DISL,ioos:station:DISL:MBLA:1,2010-04-03T03:30:00Z,30.4367,-88.0117,14.2,9.07,127.2,-9999.0,'1111122,1111122,1111122' 
DISL,ioos:station:DISL:MBLA:1,2010-04-03T04:00:00Z,30.4367,-88.0117,14.2,8.35,132.0,-9999.0,'1111122,1111122,1111122' 
DISL,ioos:station:DISL:MBLA:1,2010-04-03T04:30:00Z,30.4367,-88.0117,14.2,8.88,135.3,-9999.0,'1111122,1111122,1111122' 
DISL,ioos:station:DISL:MBLA:1,2010-04-03T05:00:00Z,30.4367,-88.0117,14.2,8.54,135.9,-9999.0,'1111122,1111122,1111122' 
DISL,ioos:station:DISL:MBLA:1,2010-04-03T05:30:00Z,30.4367,-88.0117,14.2,9.15,137.2,-9999.0,'1111122,1111122,1111122' 
DISL,ioos:station:DISL:MBLA:1,2010-04-03T06:00:00Z,30.4367,-88.0117,14.2,9.32,141.8,-9999.0,'1111122,1111122,1111122' 
DISL,ioos:station:DISL:MBLA:1,2010-04-03T06:30:00Z,30.4367,-88.0117,14.2,8.74,141.0,-9999.0,'1111122,1111122,1111122' 
DISL,ioos:station:DISL:MBLA:1,2010-04-03T07:00:00Z,30.4367,-88.0117,14.2,9.6,137.6,-9999.0,'1111122,1111122,1111122' 
DISL,ioos:station:DISL:MBLA:1,2010-04-03T07:30:00Z,30.4367,-88.0117,14.2,9.87,139.9,-9999.0,'1111122,1111122,1111122' 
DISL,ioos:station:DISL:MBLA:1,2010-04-03T08:00:00Z,30.4367,-88.0117,14.2,7.45,152.2,-9999.0,'1111122,1111122,1111122' 
DISL,ioos:station:DISL:MBLA:1,2010-04-03T08:30:00Z,30.4367,-88.0117,14.2,7.24,162.0,-9999.0,'1111122,1111122,1111122' 
DISL,ioos:station:DISL:MBLA:1,2010-04-03T09:00:00Z,30.4367,-88.0117,14.2,5.36,179.2,-9999.0,'1111122,1111122,1111122' 
DISL,ioos:station:DISL:MBLA:1,2010-04-03T09:30:00Z,30.4367,-88.0117,14.2,5.75,169.7,-9999.0,'1111122,1111122,1111122' 
DISL,ioos:station:DISL:MBLA:1,2010-04-03T10:00:00Z,30.4367,-88.0117,14.2,5.35,179.8,-9999.0,'1111122,1111122,1111122' 
DISL,ioos:station:DISL:MBLA:1,2010-04-03T10:30:00Z,30.4367,-88.0117,14.2,5.21,171.6,-9999.0,'1111122,1111122,1111122' 
DISL,ioos:station:DISL:MBLA:1,2010-04-03T11:00:00Z,30.4367,-88.0117,14.2,5.2,169.7,-9999.0,'1111122,1111122,1111122' 
DISL,ioos:station:DISL:MBLA:1,2010-04-03T11:30:00Z,30.4367,-88.0117,14.2,7.54,152.9,-9999.0,'1111122,1111122,1111122' 
DISL,ioos:station:DISL:MBLA:1,2010-04-03T12:00:00Z,30.4367,-88.0117,14.2,8.53,153.2,-9999.0,'1111122,1111122,1111122' 
DISL,ioos:station:DISL:MBLA:1,2010-04-03T12:30:00Z,30.4367,-88.0117,14.2,6.98,168.2,-9999.0,'1111122,1111122,1111122' 
DISL,ioos:station:DISL:MBLA:1,2010-04-03T13:00:00Z,30.4367,-88.0117,14.2,5.99,168.9,-9999.0,'1111122,1111122,1111122' 
DISL,ioos:station:DISL:MBLA:1,2010-04-03T13:30:00Z,30.4367,-88.0117,14.2,7.79,157.6,-9999.0,'1111122,1111122,1111122' 
DISL,ioos:station:DISL:MBLA:1,2010-04-03T14:00:00Z,30.4367,-88.0117,14.2,8.31,162.3,-9999.0,'1111122,1111122,1111122' 
DISL,ioos:station:DISL:MBLA:1,2010-04-03T14:30:00Z,30.4367,-88.0117,14.2,8.12,160.4,-9999.0,'1111122,1111122,1111122' 
DISL,ioos:station:DISL:MBLA:1,2010-04-03T15:00:00Z,30.4367,-88.0117,14.2,6.89,161.0,-9999.0,'1111122,1111122,1111122' 
DISL,ioos:station:DISL:MBLA:1,2010-04-03T15:30:00Z,30.4367,-88.0117,14.2,6.43,160.2,-9999.0,'1111122,1111122,1111122' 
DISL,ioos:station:DISL:MBLA:1,2010-04-03T16:00:00Z,30.4367,-88.0117,14.2,4.04,156.4,-9999.0,'1111122,1111122,1111122' 
DISL,ioos:station:DISL:MBLA:1,2010-04-03T16:30:00Z,30.4367,-88.0117,14.2,3.34,135.7,-9999.0,'1111122,1111122,1111122' 
DISL,ioos:station:DISL:MBLA:1,2010-04-03T17:00:00Z,30.4367,-88.0117,14.2,5.9,126.0,-9999.0,'1111122,1111122,1111122' 
DISL,ioos:station:DISL:MBLA:1,2010-04-03T17:30:00Z,30.4367,-88.0117,14.2,6.88,127.5,-9999.0,'1111122,1111122,1111122' 
DISL,ioos:station:DISL:MBLA:1,2010-04-03T18:00:00Z,30.4367,-88.0117,14.2,7.87,138.2,-9999.0,'1111122,1111122,1111122' 
DISL,ioos:station:DISL:MBLA:1,2010-04-03T18:30:00Z,30.4367,-88.0117,14.2,7.89,136.8,-9999.0,'1111122,1111122,1111122' 
DISL,ioos:station:DISL:MBLA:1,2010-04-03T19:00:00Z,30.4367,-88.0117,14.2,9.07,143.0,-9999.0,'1111122,1111122,1111122' 
DISL,ioos:station:DISL:MBLA:1,2010-04-03T19:30:00Z,30.4367,-88.0117,14.2,6.78,146.3,-9999.0,'1111122,1111122,1111122' 
DISL,ioos:station:DISL:MBLA:1,2010-04-03T20:00:00Z,30.4367,-88.0117,14.2,7.59,146.2,-9999.0,'1111122,1111122,1111122' 
DISL,ioos:station:DISL:MBLA:1,2010-04-03T20:30:00Z,30.4367,-88.0117,14.2,6.71,143.7,-9999.0,'1111122,1111122,1111122' 
DISL,ioos:station:DISL:MBLA:1,2010-04-03T21:00:00Z,30.4367,-88.0117,14.2,7.52,142.9,-9999.0,'1111122,1111122,1111122' 
DISL,ioos:station:DISL:MBLA:1,2010-04-03T21:30:00Z,30.4367,-88.0117,14.2,7.22,147.1,-9999.0,'1111122,1111122,1111122' 
DISL,ioos:station:DISL:MBLA:1,2010-04-03T22:00:00Z,30.4367,-88.0117,14.2,7.02,146.2,-9999.0,'1111122,1111122,1111122' 
DISL,ioos:station:DISL:MBLA:1,2010-04-03T22:30:00Z,30.4367,-88.0117,14.2,6.82,150.1,-9999.0,'1111122,1111122,1111122' 
DISL,ioos:station:DISL:MBLA:1,2010-04-03T23:00:00Z,30.4367,-88.0117,14.2,6.7,144.6,-9999.0,'1111122,1111122,1111122' 
DISL,ioos:station:DISL:MBLA:1,2010-04-03T23:30:00Z,30.4367,-88.0117,14.2,7.22,144.6,-9999.0,'1111122,1111122,1111122' 
DISL,ioos:station:DISL:MBLA:1,2010-04-04T00:00:00Z,30.4367,-88.0117,14.2,6.77,145.4,-9999.0,'1111122,1111122,1111122' 
DISL,ioos:station:DISL:MBLA:1,2010-04-04T00:30:00Z,30.4367,-88.0117,14.2,6.98,140.3,-9999.0,'1111122,1111122,1111122' 
DISL,ioos:station:DISL:MBLA:1,2010-04-04T01:00:00Z,30.4367,-88.0117,14.2,5.9,142.4,-9999.0,'1111122,1111122,1111122' 
DISL,ioos:station:DISL:MBLA:1,2010-04-04T01:30:00Z,30.4367,-88.0117,14.2,5.76,144.7,-9999.0,'1111122,1111122,1111122' 
DISL,ioos:station:DISL:MBLA:1,2010-04-04T02:00:00Z,30.4367,-88.0117,14.2,5.44,144.2,-9999.0,'1111122,1111122,1111122' 
DISL,ioos:station:DISL:MBLA:1,2010-04-04T02:30:00Z,30.4367,-88.0117,14.2,5.79,161.1,-9999.0,'1111122,1111122,1111122' 
DISL,ioos:station:DISL:MBLA:1,2010-04-04T03:00:00Z,30.4367,-88.0117,14.2,5.1,158.7,-9999.0,'1111122,1111122,1111122' 
DISL,ioos:station:DISL:MBLA:1,2010-04-04T03:30:00Z,30.4367,-88.0117,14.2,4.89,160.5,-9999.0,'1111122,1111122,1111122' 
DISL,ioos:station:DISL:MBLA:1,2010-04-04T04:00:00Z,30.4367,-88.0117,14.2,5.04,165.6,-9999.0,'1111122,1111122,1111122' 
DISL,ioos:station:DISL:MBLA:1,2010-04-04T04:30:00Z,30.4367,-88.0117,14.2,4.61,163.2,-9999.0,'1111122,1111122,1111122' 
DISL,ioos:station:DISL:MBLA:1,2010-04-04T05:00:00Z,30.4367,-88.0117,14.2,4.04,159.0,-9999.0,'1111122,1111122,1111122' 
DISL,ioos:station:DISL:MBLA:1,2010-04-04T05:30:00Z,30.4367,-88.0117,14.2,3.26,159.0,-9999.0,'1111122,1111122,1111122' 
DISL,ioos:station:DISL:MBLA:1,2010-04-04T06:00:00Z,30.4367,-88.0117,14.2,3.05,149.2,-9999.0,'1111122,1111122,1111122' 
DISL,ioos:station:DISL:MBLA:1,2010-04-04T06:30:00Z,30.4367,-88.0117,14.2,3.13,150.0,-9999.0,'1111122,1111122,1111122' 
DISL,ioos:station:DISL:MBLA:1,2010-04-04T07:00:00Z,30.4367,-88.0117,14.2,2.96,152.1,-9999.0,'1111122,1111122,1111122' 
DISL,ioos:station:DISL:MBLA:1,2010-04-04T07:30:00Z,30.4367,-88.0117,14.2,2.82,142.3,-9999.0,'1111122,1111122,1111122' 
DISL,ioos:station:DISL:MBLA:1,2010-04-04T08:00:00Z,30.4367,-88.0117,14.2,2.2,155.7,-9999.0,'1111122,1111122,1111122' 
DISL,ioos:station:DISL:MBLA:1,2010-04-04T08:30:00Z,30.4367,-88.0117,14.2,3.4,158.0,-9999.0,'1111122,1111122,1111122' 
DISL,ioos:station:DISL:MBLA:1,2010-04-04T09:00:00Z,30.4367,-88.0117,14.2,3.92,166.8,-9999.0,'1111122,1111122,1111122' 
DISL,ioos:station:DISL:MBLA:1,2010-04-04T09:30:00Z,30.4367,-88.0117,14.2,2.54,171.6,-9999.0,'1111122,1111122,1111122' 
DISL,ioos:station:DISL:MBLA:1,2010-04-04T10:00:00Z,30.4367,-88.0117,14.2,3.32,156.8,-9999.0,'1111122,1111122,1111122' 
DISL,ioos:station:DISL:MBLA:1,2010-04-04T10:30:00Z,30.4367,-88.0117,14.2,2.85,151.4,-9999.0,'1111122,1111122,1111122' 
DISL,ioos:station:DISL:MBLA:1,2010-04-04T11:00:00Z,30.4367,-88.0117,14.2,3.56,148.0,-9999.0,'1111122,1111122,1111122' 
DISL,ioos:station:DISL:MBLA:1,2010-04-04T11:30:00Z,30.4367,-88.0117,14.2,2.97,118.1,-9999.0,'1111122,1111122,1111122' 
DISL,ioos:station:DISL:MBLA:1,2010-04-04T12:00:00Z,30.4367,-88.0117,14.2,3.22,110.6,-9999.0,'1111122,1111122,1111122' 
DISL,ioos:station:DISL:MBLA:1,2010-04-04T12:30:00Z,30.4367,-88.0117,14.2,3.85,150.0,-9999.0,'1111122,1111122,1111122' 
DISL,ioos:station:DISL:MBLA:1,2010-04-04T13:00:00Z,30.4367,-88.0117,14.2,3.56,147.9,-9999.0,'1111122,1111122,1111122' 
DISL,ioos:station:DISL:MBLA:1,2010-04-04T13:30:00Z,30.4367,-88.0117,14.2,2.44,145.5,-9999.0,'1111122,1111122,1111122' 
DISL,ioos:station:DISL:MBLA:1,2010-04-04T14:00:00Z,30.4367,-88.0117,14.2,2.51,130.8,-9999.0,'1111122,1111122,1111122' 
DISL,ioos:station:DISL:MBLA:1,2010-04-04T14:30:00Z,30.4367,-88.0117,14.2,3.3,139.4,-9999.0,'1111122,1111122,1111122' 
DISL,ioos:station:DISL:MBLA:1,2010-04-04T15:00:00Z,30.4367,-88.0117,14.2,3.57,140.4,-9999.0,'1111122,1111122,1111122' 
DISL,ioos:station:DISL:MBLA:1,2010-04-04T15:30:00Z,30.4367,-88.0117,14.2,3.82,129.9,-9999.0,'1111122,1111122,1111122' 
DISL,ioos:station:DISL:MBLA:1,2010-04-04T16:00:00Z,30.4367,-88.0117,14.2,4.12,126.7,-9999.0,'1111122,1111122,1111122' 
DISL,ioos:station:DISL:MBLA:1,2010-04-04T16:30:00Z,30.4367,-88.0117,14.2,4.0,131.3,-9999.0,'1111122,1111122,1111122' 
DISL,ioos:station:DISL:MBLA:1,2010-04-04T17:00:00Z,30.4367,-88.0117,14.2,3.8,151.5,-9999.0,'1111122,1111122,1111122' 
DISL,ioos:station:DISL:MBLA:1,2010-04-04T17:30:00Z,30.4367,-88.0117,14.2,2.96,163.1,-9999.0,'1111122,1111122,1111122' 
DISL,ioos:station:DISL:MBLA:1,2010-04-04T18:00:00Z,30.4367,-88.0117,14.2,3.86,170.0,-9999.0,'1111122,1111122,1111122' 
DISL,ioos:station:DISL:MBLA:1,2010-04-04T18:30:00Z,30.4367,-88.0117,14.2,3.99,173.3,-9999.0,'1111122,1111122,1111122' 
DISL,ioos:station:DISL:MBLA:1,2010-04-04T19:00:00Z,30.4367,-88.0117,14.2,3.87,166.4,-9999.0,'1111122,1111122,1111122' 
DISL,ioos:station:DISL:MBLA:1,2010-04-04T19:30:00Z,30.4367,-88.0117,14.2,4.63,171.3,-9999.0,'1111122,1111122,1111122' 
DISL,ioos:station:DISL:MBLA:1,2010-04-04T20:00:00Z,30.4367,-88.0117,14.2,4.35,165.8,-9999.0,'1111122,1111122,1111122' 
DISL,ioos:station:DISL:MBLA:1,2010-04-04T20:30:00Z,30.4367,-88.0117,14.2,4.95,157.7,-9999.0,'1111122,1111122,1111122' 
DISL,ioos:station:DISL:MBLA:1,2010-04-04T21:00:00Z,30.4367,-88.0117,14.2,4.61,169.9,-9999.0,'1111122,1111122,1111122' 
DISL,ioos:station:DISL:MBLA:1,2010-04-04T21:30:00Z,30.4367,-88.0117,14.2,5.15,171.4,-9999.0,'1111122,1111122,1111122' 
DISL,ioos:station:DISL:MBLA:1,2010-04-04T22:00:00Z,30.4367,-88.0117,14.2,4.04,157.8,-9999.0,'1111122,1111122,1111122' 
DISL,ioos:station:DISL:MBLA:1,2010-04-04T22:30:00Z,30.4367,-88.0117,14.2,3.86,168.5,-9999.0,'1111122,1111122,1111122' 
DISL,ioos:station:DISL:MBLA:1,2010-04-04T23:00:00Z,30.4367,-88.0117,14.2,4.27,163.0,-9999.0,'1111122,1111122,1111122' 
DISL,ioos:station:DISL:MBLA:1,2010-04-04T23:30:00Z,30.4367,-88.0117,14.2,4.58,165.0,-9999.0,'1111122,1111122,1111122' 
DISL,ioos:station:DISL:MBLA:1,2010-04-05T00:00:00Z,30.4367,-88.0117,14.2,5.09,150.3,-9999.0,'1111122,1111122,1111122' 
DISL,ioos:station:DISL:MBLA:1,2010-04-05T00:30:00Z,30.4367,-88.0117,14.2,3.8,169.1,-9999.0,'1111122,1111122,1111122' 
DISL,ioos:station:DISL:MBLA:1,2010-04-05T01:00:00Z,30.4367,-88.0117,14.2,3.69,165.5,-9999.0,'1111122,1111122,1111122' 
DISL,ioos:station:DISL:MBLA:1,2010-04-05T01:30:00Z,30.4367,-88.0117,14.2,2.8,164.5,-9999.0,'1111122,1111122,1111122' 
DISL,ioos:station:DISL:MBLA:1,2010-04-05T02:00:00Z,30.4367,-88.0117,14.2,3.44,189.6,-9999.0,'1111122,1111122,1111122' 
DISL,ioos:station:DISL:MBLA:1,2010-04-05T02:30:00Z,30.4367,-88.0117,14.2,3.33,180.1,-9999.0,'1111122,1111122,1111122' 
DISL,ioos:station:DISL:MBLA:1,2010-04-05T03:00:00Z,30.4367,-88.0117,14.2,2.64,180.9,-9999.0,'1111122,1111122,1111122' 
DISL,ioos:station:DISL:MBLA:1,2010-04-05T03:30:00Z,30.4367,-88.0117,14.2,3.12,157.4,-9999.0,'1111122,1111122,1111122' 